This is the latest recevied weather packets stored in our database for station/object N3FYI-5. If no packets are shown the sender has not sent any weather packets the latest 10 day(s).
| Time | Temp. | Humidity | Pressure | Rain* | Wind** | Luminosity | Snow |
|---|---|---|---|---|---|---|---|
| 1777409505 | 9.44° C | 84% | 1023.2 hPa | 0 mm | - | - | - |
| 1777409024 | 10° C | 84% | 1023.3 hPa | 0 mm | - | - | - |
| 1777408064 | 10° C | 83% | 1023.4 hPa | 0 mm | - | - | - |
| 1777407584 | 10° C | 82% | 1023.4 hPa | 0 mm | - | - | - |
| 1777407106 | 10° C | 82% | 1023.5 hPa | 0 mm | - | - | - |
| 1777406624 | 10.56° C | 80% | 1023.6 hPa | 0 mm | - | - | - |
| 1777406150 | 10.56° C | 79% | 1023.6 hPa | 0 mm | - | - | - |
| 1777405673 | 10.56° C | 79% | 1023.5 hPa | 0 mm | - | - | - |
| 1777405184 | 10.56° C | 78% | 1023.5 hPa | 0 mm | - | - | - |
| 1777404704 | 11.11° C | 77% | 1023.6 hPa | 0 mm | - | - | - |
| 1777404224 | 11.11° C | 76% | 1023.7 hPa | 0 mm | - | - | - |
| 1777403749 | 11.11° C | 76% | 1023.8 hPa | 0 mm | - | - | - |
| 1777403264 | 11.67° C | 75% | 1023.5 hPa | 0 mm | - | - | - |
| 1777402304 | 11.67° C | 73% | 1023.7 hPa | 0 mm | - | - | - |
| 1777401824 | 11.67° C | 73% | 1023.7 hPa | 0 mm | - | - | - |
| 1777401344 | 11.67° C | 72% | 1023.8 hPa | 0 mm | - | - | - |
| 1777400864 | 12.22° C | 71% | 1023.7 hPa | 0 mm | - | - | - |
| 1777400387 | 12.22° C | 70% | 1023.7 hPa | 0 mm | - | - | - |
| 1777399904 | 12.22° C | 69% | 1023.6 hPa | 0 mm | - | - | - |
| 1777399424 | 12.22° C | 66% | 1023.6 hPa | 0 mm | - | - | - |
| 1777398945 | 12.22° C | 68% | 1023.6 hPa | 0 mm | - | - | - |
| 1777398464 | 12.78° C | 67% | 1023.7 hPa | 0 mm | - | - | - |
| 1777397984 | 12.22° C | 68% | 1023.7 hPa | 0 mm | - | - | - |
| 1777397037 | 11.67° C | 67% | 1023.7 hPa | 0 mm | - | - | - |
| 1777396557 | 12.22° C | 67% | 1023.6 hPa | 0 mm | - | - | - |
* Rain latest hour (hover to see other rain measurements)
** Current wind speed in m/s (hover to see current wind gust speed)